Location: Fort Wayne
(41.1310°N, 85.1290°W)
Time: 22:15:44
(UTC-04:00)

Courier 1B Rocket - All Passes

Search period start: 02 September 2014 00:00
Search period end: 12 September 2014 00:00
Orbit: 921 x 1202 km, 28.2° (Epoch: 31 August)

Date Brightness Start Highest point End Pass type
(mag) Time Alt. Az. Time Alt. Az. Time Alt. Az.
02 Sep - 00:42:15 10° SSW 00:46:31 16° SSE 00:50:39 10° SE night (unlit)
02 Sep - 02:33:21 10° SW 02:39:12 26° S 02:44:44 10° ESE visible
02 Sep - 04:26:17 10° WSW 04:31:54 26° S 04:37:14 10° SE visible
02 Sep - 06:20:40 10° SW 06:24:22 16° SSW 06:27:58 10° SSE visible
02 Sep - 23:42:56 10° S 23:45:44 12° SSE 23:48:31 10° SE night (unlit)
03 Sep - 01:32:39 10° SW 01:38:23 24° SSE 01:43:51 10° ESE night (unlit)
03 Sep - 03:25:11 10° WSW 03:31:09 28° S 03:36:47 10° SE visible
03 Sep - 05:18:58 10° WSW 05:23:44 20° SSW 05:28:19 10° SSE visible
04 Sep - 00:32:11 10° SSW 00:37:33 21° SSE 00:42:44 10° ESE night (unlit)
04 Sep - 02:24:10 10° SW 02:30:20 29° S 02:36:10 10° ESE night (unlit)
04 Sep - 04:17:33 10° WSW 04:23:03 24° SSW 04:28:16 10° SE visible
04 Sep - 06:13:17 10° SW 06:15:25 12° SSW 06:17:31 10° S visible
04 Sep - 23:32:04 10° SSW 23:36:44 17° SSE 23:41:18 10° ESE night (unlit)
05 Sep - 01:23:17 10° SW 01:29:29 28° S 01:35:23 10° ESE night (unlit)
05 Sep - 03:16:17 10° WSW 03:22:17 27° S 03:27:57 10° SE visible
05 Sep - 05:10:44 10° WSW 05:14:48 16° SSW 05:18:44 10° SSE visible
05 Sep - 22:32:37 10° S 22:35:56 13° SSE 22:39:13 10° SE visible
06 Sep - 00:22:35 10° SW 00:28:37 25° SSE 00:34:26 10° ESE night (unlit)
06 Sep - 02:15:09 10° WSW 02:21:27 29° S 02:27:26 10° SE night (unlit)
06 Sep - 04:08:59 10° WSW 04:14:08 21° SSW 04:19:02 10° SSE visible
06 Sep - 23:22:06 10° SSW 23:27:44 22° SSE 23:33:15 10° ESE visible
07 Sep - 01:14:08 10° SW 01:20:35 30° S 01:26:45 10° ESE night (unlit)
07 Sep - 03:07:32 10° WSW 03:13:22 25° SSW 03:18:56 10° SE night (unlit)
07 Sep - 05:03:09 10° SW 05:05:49 12° SSW 05:08:25 10° S visible
07 Sep - 22:22:00 10° SSW 22:26:54 18° SSE 22:31:45 10° ESE visible
08 Sep - 00:13:15 10° SW 00:19:40 29° S 00:25:54 10° ESE night (unlit)
08 Sep - 02:06:15 10° WSW 02:12:33 28° S 02:18:33 10° SE night (unlit)
08 Sep - 04:00:42 10° WSW 04:05:09 17° SSW 04:09:27 10° SSE visible
08 Sep - 21:22:33 10° S 21:26:05 14° SSE 21:29:37 10° SE visible
08 Sep - 23:12:34 10° SW 23:18:46 26° SSE 23:24:51 10° ESE visible
09 Sep - 01:05:07 10° WSW 01:11:40 30° S 01:17:58 10° SE night (unlit)
09 Sep - 02:58:57 10° WSW 03:04:25 22° SSW 03:09:40 10° SSE night (unlit)
09 Sep - 22:12:08 10° SSW 22:17:52 23° SSE 22:23:35 10° ESE visible
10 Sep - 00:04:07 10° SW 00:10:44 31° S 00:17:11 10° ESE visible
10 Sep - 01:57:30 10° WSW 02:03:36 26° SSW 02:09:29 10° SE night (unlit)
10 Sep - 03:52:59 10° SW 03:56:08 13° SSW 03:59:12 10° S night (unlit)
10 Sep - 21:12:06 10° SSW 21:17:01 18° SSE 21:21:59 10° ESE visible
10 Sep - 23:03:18 10° SW 23:09:48 29° S 23:16:14 10° ESE visible
11 Sep - 00:56:15 10° WSW 01:02:44 29° S 01:09:01 10° SE night (unlit)
11 Sep - 02:50:38 10° WSW 02:55:25 18° SSW 03:00:03 10° SSE night (unlit)
11 Sep - 20:12:44 10° S 20:16:14 14° SSE 20:19:47 10° SE visible
11 Sep - 22:02:40 10° SW 22:08:52 27° SSE 22:15:06 10° ESE visible
11 Sep - 23:55:09 10° WSW 00:00:00 28° SSW 00:00:00 28° SSW visible
